This is the latest recevied weather packets stored in our database for station/object OE3PDB-4. If no packets are shown the sender has not sent any weather packets the latest 10 day(s).
| Time | Temp. | Humidity | Pressure | Rain* | Wind** | Luminosity | Snow |
|---|---|---|---|---|---|---|---|
| 1777743006 | 21.11° C | 36% | 1019.1 hPa | 0 mm | - | - | - |
| 1777742406 | 21.67° C | 35% | 1019.1 hPa | 0 mm | - | - | - |
| 1777741806 | 21.67° C | 34% | 1019.1 hPa | 0 mm | - | - | - |
| 1777741206 | 22.78° C | 32% | 1019.2 hPa | 0 mm | - | - | - |
| 1777740606 | 23.33° C | 31% | 1019.3 hPa | 0 mm | - | - | - |
| 1777740006 | 23.89° C | 29% | 1019.3 hPa | 0 mm | - | - | - |
| 1777739406 | 24.44° C | 29% | 1019.3 hPa | 0 mm | - | - | - |
| 1777738806 | 25° C | 28% | 1019.4 hPa | 0 mm | - | - | - |
| 1777738206 | 25.56° C | 27% | 1019.4 hPa | 0 mm | - | - | - |
| 1777737606 | 26.11° C | 27% | 1019.6 hPa | 0 mm | - | - | - |
| 1777737006 | 26.67° C | 26% | 1019.8 hPa | 0 mm | - | - | - |
| 1777736406 | 26.67° C | 26% | 1019.9 hPa | 0 mm | - | - | - |
| 1777735806 | 26.67° C | 26% | 1019.9 hPa | 0 mm | - | - | - |
| 1777735206 | 26.67° C | 26% | 1019.9 hPa | 0 mm | - | - | - |
| 1777734606 | 26.67° C | 26% | 1020.1 hPa | 0 mm | - | - | - |
| 1777734006 | 26.67° C | 26% | 1020.2 hPa | 0 mm | - | - | - |
| 1777733406 | 27.22° C | 24% | 1020.3 hPa | 0 mm | - | - | - |
| 1777732806 | 27.78° C | 24% | 1020.2 hPa | 0 mm | - | - | - |
| 1777732206 | 27.78° C | 26% | 1020.4 hPa | 0 mm | - | - | - |
| 1777731607 | 27.78° C | 25% | 1020.4 hPa | 0 mm | - | - | - |
| 1777731007 | 27.78° C | 26% | 1020.6 hPa | 0 mm | - | - | - |
| 1777730407 | 27.78° C | 26% | 1020.6 hPa | 0 mm | - | - | - |
| 1777729807 | 27.22° C | 26% | 1020.7 hPa | 0 mm | - | - | - |
| 1777729207 | 27.22° C | 26% | 1020.9 hPa | 0 mm | - | - | - |
| 1777728607 | 26.67° C | 27% | 1020.9 hPa | 0 mm | - | - | - |
* Rain latest hour (hover to see other rain measurements)
** Current wind speed in m/s (hover to see current wind gust speed)